| time (UTC) | temp F | wind direction | speed knots | gust knots | rain 1hr in | rain 24hr in | rain mn in | humidity % | barometer mb |
| 20260507184728 | 0 | 338 | 4.3 | 7.8 | 0.00 | 0.00 | 0.00 | 1010.2 | |
| 20260507183551 | 0 | 338 | 5.2 | 7.8 | 0.00 | 0.00 | 0.00 | 1009.9 | |
| 20260507182413 | 0 | 338 | 4.3 | 7.0 | 0.00 | 0.00 | 0.00 | 1009.5 | |
| 20260507181235 | 0 | 338 | 3.5 | 6.1 | 0.00 | 0.00 | 0.00 | 1009.4 | |
| 20260507180057 | 0 | 315 | 3.5 | 6.1 | 0.00 | 0.00 | 0.00 | 1009.0 | |
| 20260507174913 | 0 | 0 | 1.7 | 7.0 | 0.00 | 0.00 | 0.00 | 1008.2 | |
| 20260507173736 | 0 | 338 | 1.7 | 6.1 | 0.00 | 0.00 | 0.00 | 1008.5 | |
| 20260507172557 | 0 | 315 | 2.6 | 7.0 | 0.00 | 0.00 | 0.00 | 1008.2 | |
| 20260507171419 | 0 | 270 | 3.5 | 5.2 | 0.00 | 0.00 | 0.00 | 1007.6 | |
| 20260507170241 | 0 | 293 | 1.7 | 6.1 | 0.00 | 0.00 | 0.00 | 1007.3 | |
| 20260507165103 | 0 | 293 | 3.5 | 7.8 | 0.00 | 0.00 | 0.00 | 1007.9 | |
| 20260507163925 | 0 | 338 | 4.3 | 8.7 | 0.00 | 0.00 | 0.00 | 1008.4 | |
| 20260507162742 | 0 | 293 | 4.3 | 9.6 | 0.00 | 0.00 | 0.00 | 1008.3 | |
| 20260507161604 | 0 | 270 | 5.2 | 13.9 | 0.00 | 0.00 | 0.00 | 1008.2 | |
| 20260507160428 | 0 | 338 | 3.5 | 8.7 | 0.00 | 0.00 | 0.00 | 1008.1 | |
| 20260507155250 | 0 | 338 | 3.5 | 9.6 | 0.00 | 0.00 | 0.00 | 1008.0 | |
| 20260507154111 | 0 | 270 | 6.1 | 9.6 | 0.00 | 0.00 | 0.00 | 1007.9 | |
| 20260507152933 | 0 | 338 | 7.0 | 8.7 | 0.00 | 0.00 | 0.00 | 1008.0 | |
| 20260507151757 | 0 | 293 | 5.2 | 7.0 | 0.00 | 0.00 | 0.00 | 1008.2 | |
| 20260507150619 | 0 | 338 | 3.5 | 13.0 | 0.00 | 0.00 | 0.00 | 1008.1 | |
| 20260507145440 | 0 | 0 | 7.8 | 11.3 | 0.00 | 0.00 | 0.00 | 1007.7 | |
| 20260507144302 | 0 | 293 | 6.1 | 11.3 | 0.00 | 0.00 | 0.00 | 1007.5 | |
| 20260507143125 | 0 | 293 | 5.2 | 8.7 | 0.00 | 0.00 | 0.00 | 1007.8 | |
| 20260507141946 | 0 | 293 | 4.3 | 9.6 | 0.00 | 0.00 | 0.00 | 1007.7 | |
| 20260507140809 | 0 | 293 | 4.3 | 11.3 | 0.00 | 0.00 | 0.00 | 1007.9 | |
| 20260507135630 | 0 | 0 | 13.9 | 14.8 | 0.00 | 0.00 | 0.00 | 1007.8 | |
| 20260507134454 | 0 | 0 | 2.6 | 10.4 | 0.00 | 0.00 | 0.00 | 1007.8 | |
| 20260507133315 | 0 | 338 | 3.5 | 8.7 | 0.00 | 0.00 | 0.00 | 1007.8 | |
| 20260507132137 | 0 | 315 | 5.2 | 11.3 | 0.00 | 0.00 | 0.00 | 1007.9 | |
| 20260507130958 | 0 | 315 | 3.5 | 9.6 | 0.00 | 0.00 | 0.00 | 1007.9 | |
| 20260507125820 | 0 | 270 | 1.7 | 10.4 | 0.00 | 0.00 | 0.00 | 1007.7 | |
| 20260507124643 | 0 | 293 | 2.6 | 10.4 | 0.00 | 0.00 | 0.00 | 1007.5 | |
| 20260507123504 | 0 | 225 | 6.1 | 10.4 | 0.00 | 0.00 | 0.00 | 1007.6 | |
| 20260507122325 | 0 | 315 | 4.3 | 9.6 | 0.00 | 0.00 | 0.00 | 1007.6 | |
| 20260507121148 | 0 | 0 | 7.8 | 8.7 | 0.00 | 0.00 | 0.00 | 1007.3 | |
| 20260507120010 | 0 | 338 | 2.6 | 11.3 | 0.00 | 0.00 | 0.00 | 1007.3 | |
| 20260507114833 | 0 | 90 | 0.9 | 8.7 | 0.00 | 0.00 | 0.00 | 1007.3 | |
| 20260507113654 | 0 | 270 | 8.7 | 10.4 | 0.00 | 0.00 | 0.00 | 1007.5 | |
| 20260507112517 | 0 | 225 | 4.3 | 7.8 | 0.00 | 0.00 | 0.00 | 1007.3 | |
| 20260507111338 | 0 | 293 | 2.6 | 8.7 | 0.00 | 0.00 | 0.00 | 1007.8 | |
| 20260507110200 | 0 | 270 | 1.7 | 13.0 | 0.00 | 0.00 | 0.00 | 1007.8 | |
| 20260507105023 | 0 | 293 | 5.2 | 7.8 | 0.00 | 0.00 | 0.00 | 1007.6 | |
| 20260507103844 | 0 | 338 | 3.5 | 8.7 | 0.00 | 0.00 | 0.00 | 1007.5 | |
| 20260507102707 | 0 | 248 | 7.0 | 9.6 | 0.00 | 0.00 | 0.00 | 1007.5 | |
| 20260507101529 | 0 | 0 | 6.1 | 7.8 | 0.00 | 0.00 | 0.00 | 1007.5 | |
| 20260507100351 | 0 | 270 | 5.2 | 8.7 | 0.00 | 0.00 | 0.00 | 1007.8 | |
| 20260507095213 | 0 | 270 | 6.1 | 9.6 | 0.00 | 0.00 | 0.00 | 1007.7 | |
| 20260507094034 | 0 | 338 | 7.0 | 9.6 | 0.00 | 0.00 | 0.00 | 1007.8 | |
| 20260507092856 | 0 | 270 | 4.3 | 9.6 | 0.00 | 0.00 | 0.00 | 1007.5 | |
| 20260507091717 | 0 | 293 | 2.6 | 7.0 | 0.00 | 0.00 | 0.00 | 1007.9 | |
| 20260507090541 | 0 | 270 | 6.1 | 7.8 | 0.00 | 0.00 | 0.00 | 1007.7 | |
| 20260507085403 | 0 | 270 | 3.5 | 7.8 | 0.00 | 0.00 | 0.00 | 1008.0 | |
| 20260507084225 | 0 | 293 | 2.6 | 10.4 | 0.00 | 0.00 | 0.00 | 1008.0 | |
| 20260507083046 | 0 | 338 | 2.6 | 10.4 | 0.00 | 0.00 | 0.00 | 1007.8 | |
| 20260507081908 | 0 | 315 | 4.3 | 7.0 | 0.00 | 0.00 | 0.00 | 1007.8 | |
| 20260507080731 | 0 | 338 | 3.5 | 7.0 | 0.00 | 0.00 | 0.00 | 1007.7 | |
| 20260507075553 | 0 | 315 | 6.1 | 7.8 | 0.00 | 0.00 | 0.00 | 1007.8 | |
| 20260507074414 | 0 | 338 | 4.3 | 10.4 | 0.00 | 0.00 | 0.00 | 1007.7 | |
| 20260507073235 | 0 | 270 | 7.0 | 11.3 | 0.00 | 0.00 | 0.00 | 1007.4 | |
| 20260507072057 | 0 | 270 | 5.2 | 9.6 | 0.00 | 0.00 | 0.00 | 1007.7 | |
| 20260507070914 | 0 | 293 | 4.3 | 10.4 | 0.00 | 0.00 | 0.00 | 1007.5 | |
| 20260507065736 | 0 | 293 | 4.3 | 12.2 | 0.00 | 0.00 | 0.00 | 1007.6 | |
| 20260507064557 | 0 | 338 | 5.2 | 9.6 | 0.00 | 0.00 | 0.00 | 1007.7 | |
| 20260507063415 | 0 | 293 | 5.2 | 13.0 | 0.00 | 0.00 | 0.00 | 1007.6 | |
| 20260507062236 | 0 | 225 | 5.2 | 10.4 | 0.00 | 0.00 | 0.00 | 1007.2 | |
| 20260507061058 | 0 | 0 | 7.8 | 9.6 | 0.00 | 0.00 | 0.00 | 1007.1 | |
| 20260507055921 | 0 | 338 | 1.7 | 6.1 | 0.00 | 0.00 | 0.00 | 1007.1 | |
| 20260507054743 | 0 | 293 | 2.6 | 5.2 | 0.00 | 0.00 | 0.00 | 1007.2 | |
| 20260507053605 | 0 | 293 | 3.5 | 6.1 | 0.00 | 0.00 | 0.00 | 1007.1 | |
| 20260507052426 | 0 | 293 | 7.8 | 8.7 | 0.00 | 0.00 | 0.00 | 1007.1 | |
| 20260507051247 | 0 | 293 | 2.6 | 8.7 | 0.00 | 0.00 | 0.00 | 1006.8 | |
| 20260507050109 | 0 | 225 | 4.3 | 7.8 | 0.00 | 0.00 | 0.00 | 1006.8 | |
| 20260507044930 | 0 | 315 | 3.5 | 8.7 | 0.00 | 0.00 | 0.00 | 1006.6 | |
| 20260507043753 | 0 | 225 | 1.7 | 5.2 | 0.00 | 0.00 | 0.00 | 1006.6 | |
| 20260507042615 | 0 | 315 | 2.6 | 4.3 | 0.00 | 0.00 | 0.00 | 1006.5 | |
| 20260507041435 | 0 | 225 | 0.9 | 2.6 | 0.00 | 0.00 | 0.00 | 1006.3 | |
| 20260507040256 | 0 | 225 | 0.9 | 1.7 | 0.00 | 0.00 | 0.00 | 1006.2 | |
| 20260507035116 | 0 | 270 | 1.7 | 3.5 | 0.00 | 0.00 | 0.00 | 1006.2 | |
| 20260507033935 | 0 | 293 | 0.9 | 3.5 | 0.00 | 0.00 | 0.00 | 1006.0 | |
| 20260507032755 | 0 | 270 | 2.6 | 2.6 | 0.00 | 0.00 | 0.00 | 1006.0 | |
| 20260507031616 | 0 | 270 | 1.7 | 1.7 | 0.00 | 0.00 | 0.00 | 1006.1 | |
| 20260507030435 | 0 | 338 | 0.0 | 2.6 | 0.00 | 0.00 | 0.00 | 1006.0 | |
| 20260507025254 | 0 | 293 | 0.9 | 1.7 | 0.00 | 0.00 | 0.00 | 1005.9 | |
| 20260507024114 | 0 | 270 | 0.9 | 1.7 | 0.00 | 0.00 | 0.00 | 1005.8 | |
| 20260507022935 | 0 | 293 | 0.9 | 2.6 | 0.00 | 0.00 | 0.00 | 1005.6 | |
| 20260507021752 | 0 | 0 | 0.9 | 2.6 | 0.00 | 0.00 | 0.00 | 1005.7 | |
| 20260507020613 | 0 | 338 | 2.6 | 2.6 | 0.00 | 0.00 | 0.00 | 1005.7 | |
| 20260507015434 | 0 | 315 | 0.9 | 3.5 | 0.00 | 0.00 | 0.00 | 1005.5 | |
| 20260507014253 | 0 | 270 | 1.7 | 2.6 | 0.00 | 0.00 | 0.00 | 1005.1 | |
| 20260507013113 | 0 | 293 | 1.7 | 2.6 | 0.00 | 0.00 | 0.00 | 1005.0 | |
| 20260507011933 | 0 | 293 | 0.9 | 3.5 | 0.00 | 0.00 | 0.00 | 1005.2 | |
| 20260507010752 | 0 | 315 | 2.6 | 6.1 | 0.00 | 0.00 | 0.00 | 1005.2 | |
| 20260507005612 | 0 | 293 | 3.5 | 7.8 | 0.00 | 0.00 | 0.00 | 1005.0 | |
| 20260507004432 | 0 | 338 | 4.3 | 7.0 | 0.00 | 0.00 | 0.00 | 1004.9 | |
| 20260507003251 | 0 | 315 | 3.5 | 5.2 | 0.00 | 0.00 | 0.00 | 1004.9 | |
| 20260507002109 | 0 | 270 | 3.5 | 5.2 | 0.00 | 0.00 | 0.00 | 1004.8 | |
| 20260507000928 | 0 | 270 | 1.7 | 5.2 | 0.00 | 0.00 | 0.00 | 1004.6 | |
| 20260506235746 | 0 | 0 | 4.3 | 6.1 | 0.00 | 0.00 | 0.00 | 1004.4 | |
| 20260506234605 | 0 | 338 | 4.3 | 7.0 | 0.00 | 0.00 | 0.00 | 1004.0 | |
| 20260506233424 | 0 | 293 | 1.7 | 10.4 | 0.00 | 0.00 | 0.00 | 1003.6 | |
| 20260506232244 | 0 | 270 | 6.1 | 10.4 | 0.00 | 0.00 | 0.00 | 1003.4 | |
| 20260506231103 | 0 | 0 | 6.1 | 12.2 | 0.00 | 0.00 | 0.00 | 1003.3 | |
| 20260506225920 | 0 | 293 | 6.1 | 9.6 | 0.00 | 0.00 | 0.00 | 1003.4 | |
| 20260506224740 | 0 | 270 | 7.8 | 11.3 | 0.00 | 0.00 | 0.00 | 1003.4 | |
| 20260506223559 | 0 | 0 | 7.8 | 16.5 | 0.00 | 0.00 | 0.00 | 1003.1 | |
| 20260506222420 | 0 | 293 | 17.4 | 21.7 | 0.00 | 0.00 | 0.00 | 1003.0 | |
| 20260506221240 | 0 | 293 | 8.7 | 13.0 | 0.00 | 0.00 | 0.00 | 1002.9 | |
| 20260506220059 | 0 | 0 | 7.8 | 13.0 | 0.00 | 0.00 | 0.00 | 1002.9 | |
| 20260506214917 | 0 | 0 | 7.0 | 12.2 | 0.00 | 0.00 | 0.00 | 1002.6 | |
| 20260506213736 | 0 | 338 | 2.6 | 6.1 | 0.00 | 0.00 | 0.00 | 1001.6 | |
| 20260506212556 | 0 | 338 | 3.5 | 7.8 | 0.00 | 0.00 | 0.00 | 1001.3 | |
| 20260506211416 | 0 | 135 | 7.0 | 7.0 | 0.00 | 0.00 | 0.00 | 1001.1 | |
| 20260506210236 | 0 | 135 | 6.1 | 7.8 | 0.00 | 0.00 | 0.00 | 1000.8 | |
| 20260506205056 | 0 | 135 | 4.3 | 5.2 | 0.00 | 0.00 | 0.00 | 1000.9 | |
| 20260506203915 | 0 | 135 | 4.3 | 5.2 | 0.00 | 0.00 | 0.00 | 1000.9 | |
| 20260506202735 | 0 | 135 | 2.6 | 4.3 | 0.00 | 0.00 | 0.00 | 1000.9 | |
| 20260506201552 | 0 | 135 | 0.9 | 5.2 | 0.00 | 0.00 | 0.00 | 1001.0 | |
| 20260506200410 | 0 | 315 | 3.5 | 6.1 | 0.00 | 0.00 | 0.00 | 1001.1 | |
| 20260506195231 | 0 | 315 | 5.2 | 7.8 | 0.00 | 0.00 | 0.00 | 1001.2 | |
| 20260506194051 | 0 | 270 | 5.2 | 9.6 | 0.00 | 0.00 | 0.00 | 1001.1 | |
| 20260506192910 | 0 | 270 | 6.1 | 7.8 | 0.00 | 0.00 | 0.00 | 1000.9 | |
| 20260506191727 | 0 | 135 | 3.5 | 6.1 | 0.00 | 0.00 | 0.00 | 1000.5 | |
| 20260506190547 | 0 | 68 | 3.5 | 7.8 | 0.00 | 0.00 | 0.00 | 1000.2 |